Flag for Poland Weather past 2 weeks in Warsaw, Poland

Now
63 °F

Light rain. Clear.


Feels Like: 63 °F
Forecast: 65 / 82 °F
Wind: 7 mph from Northeast

Location: Warsaw Okecie Airport

Current Time: Jul 24, 2014 at 5:26:12 AM

Latest Report: Jul 24, 2014 at 5:00 AM


Visibility: N/A

Pressure: 29.98 "Hg

Humidity: 88%

Dew point: 59 °F

Location of WarsawLocation

Historic Weather in Warsaw — Graph

°F

Warsaw temperature yesterday

Maximum temperature yesterday: 77 °F (at 11:00 AM)
Minimum temperature yesterday: 63 °F (at 4:00 AM)
Average temperature yesterday: 69 °F

Past Weeks' High & Low Weather Summary

 TemperatureHumidityPressure
High86 °F (Jul 9, 3:00 PM)100% (Jul 11, 12:00 AM)30.15 "Hg (Jul 11, 12:00 AM)
Low55 °F (Jul 13, 4:30 AM)32% (Jul 19, 5:00 PM)29.65 "Hg (Jul 9, 3:00 PM)
Average70 °F71%29.93 "Hg
* Reported Jul 9 4:00 AM — Jul 24 4:30 AM, Warsaw, Weather by CustomWeather, © 2014

Note: Actual official high and low records may vary slightly from our data, if they occured in-between our weather recording intervals... More about our weather records

Advertising

Warsaw weather history for previous 24 hours

 ConditionsComfort  
Time TempWeatherWind HumidityBarometerVisibility
4:30 AM
Jul 24
63 °FLight rain. Clear.7 mph88%29.98 "HgN/A
4:00 AM63 °FLight rain. Clear.7 mph94%29.98 "HgN/A
3:30 AM63 °FRain. Passing clouds.8 mph88%29.98 "Hg5 mi
3:00 AM63 °FLight rain. Clear.7 mph88%29.98 "HgN/A
2:30 AM63 °FLight rain. Clear.6 mph88%29.98 "HgN/A
2:00 AM64 °FClear.6 mph83%29.98 "Hg10 mi
1:30 AM64 °FClear.6 mph83%29.98 "Hg10 mi
1:00 AM64 °FClear.7 mph83%29.98 "Hg10 mi
12:30 AM64 °FClear.7 mph83%29.98 "Hg10 mi
12:00 AM64 °FClear.6 mph83%29.98 "Hg10 mi
11:30 PM
Jul 23
64 °FClear.6 mph83%30.01 "Hg10 mi
11:00 PM64 °FClear.10 mph83%30.01 "Hg10 mi
10:30 PM64 °FClear.8 mph83%30.01 "Hg10 mi
10:00 PM64 °FClear.9 mph83%30.01 "Hg10 mi
9:00 PM63 °FPassing clouds.8 mph94%30.01 "HgN/A
8:30 PM63 °FSprinkles. Scattered clouds.9 mph94%30.01 "HgN/A
8:00 PM64 °FSprinkles. Partly sunny.6 mph88%30.04 "HgN/A
7:30 PM64 °FThunderstorms. Partly sunny.1 mph88%30.01 "HgN/A
7:00 PM66 °FThunderstorms. Partly sunny.6 mph83%30.01 "HgN/A
6:30 PM68 °FThunderstorms. Partly sunny.7 mph73%30.01 "HgN/A
6:00 PM68 °FPartly sunny.14 mph69%30.01 "HgN/A
5:30 PM73 °FScattered clouds.21 mph53%29.98 "HgN/A
5:00 PM75 °FPassing clouds.16 mph44%29.95 "HgN/A
4:30 PM77 °FPassing clouds.12 mph54%29.95 "HgN/A
4:00 PM77 °FPassing clouds.14 mph51%29.95 "HgN/A
3:30 PM75 °FPassing clouds.12 mph57%29.98 "HgN/A
3:00 PM75 °FPassing clouds.13 mph54%29.98 "HgN/A
2:30 PM73 °FPassing clouds.10 mph57%29.98 "HgN/A
2:00 PM73 °FPassing clouds.12 mph57%30.01 "HgN/A
1:30 PM73 °FPassing clouds.16 mph57%30.01 "HgN/A
1:00 PM75 °FThunderstorms. Scattered clouds.9 mph57%30.01 "HgN/A
12:00 PM77 °FThunderstorms. Scattered clouds.14 mph51%30.01 "HgN/A
11:30 AM77 °FScattered clouds.10 mph54%30.01 "HgN/A
11:00 AM77 °FPassing clouds.9 mph61%30.01 "HgN/A
10:00 AM73 °FPassing clouds.12 mph61%30.01 "HgN/A
8:00 AM68 °FPassing clouds.10 mph69%30.01 "HgN/A
7:30 AM66 °FSunny.7 mph73%30.01 "Hg10 mi
7:00 AM66 °FSunny.8 mph78%30.01 "Hg10 mi
6:30 AM64 °FSunny.9 mph78%30.01 "Hg10 mi
6:00 AM63 °FSunny.9 mph83%30.01 "Hg10 mi
5:30 AM63 °FClear.5 mph83%30.01 "Hg10 mi
5:00 AM63 °FClear.6 mph83%30.01 "Hg10 mi
Weather by CustomWeather, © 2014

See weather overviewHow to use our weather pages